Weather Service Report


820 
ASUS41 KBOX 181810
RWRBOX

REGIONAL WEATHER ROUNDUP
NATIONAL WEATHER SERVICE TAUNTON MA
100 PM EST THU DEC 18 2014

NOTE:  "FAIR" INDICATES FEW OR NO CLOUDS BELOW 12,000 FEET WITH NO 
SIGNIFICANT WEATHER AND/OR OBSTRUCTIONS TO VISIBILITY.  THE FOLLOWING 
OBSERVATION LOCATIONS DO NOT REPORT PRESENT WEATHER...PROVINCETOWN...
SMITHFIELD...BLOCK ISLAND...KEENE...AND OXFORD.

MAZALL-181900-
EASTERN MASSACHUSETTS
  
CITY           SKY/WX    TMP DP  RH WIND       PRES   REMARKS
BOSTON         CLOUDY    43  29  57 W14G24    29.77S                  
6HR MIN TEMP:  36; 6HR MAX TEMP:  44; 6HR PCP: TRACE;                

BEVERLY        CLOUDY    42  29  59 NW9G25    29.74S                  
LAWRENCE       CLOUDY    41  29  62 NW13G24   29.77R                  
BEDFORD        CLOUDY    41  29  62 W14G24    29.76F                  
BLUE HILL        N/A     39  29  67 W17G28    29.74S WCI  30          
NORWOOD        CLOUDY    42  29  59 W13G22    29.77F                  
MARSHFIELD     CLOUDY    43  32  65 W14G22    29.78R                  
PLYMOUTH       PTSUNNY   43  29  57 W21G32    29.76S                  
TAUNTON        CLOUDY    43  28  55 W13G20    29.78F                  
NEW BEDFORD    MOSUNNY   45  29  53 NW13G22   29.77F                  
$$

MAZALL-181900-
CAPE COD AND THE ISLANDS
  
CITY           SKY/WX    TMP DP  RH WIND       PRES   REMARKS
FALMOUTH       CLOUDY    45  28  53 NW18G25   29.76S                  
HYANNIS        CLOUDY    44  28  53 W12G21    29.73F                  
CHATHAM        CLOUDY    42  30  62 NW12G22   29.75S                  
PROVINCETOWN   CLOUDY    43  30  61 W20G31    29.75S                  
NANTUCKET      MOSUNNY   45  29  53 W20G30    29.77F                  
MARTHAS VNYRD  MOSUNNY   44  26  49 NW16G28   29.78F                  
$$
 
MAZALL-181900-
CENTRAL AND WESTERN MASSACHUSETTS
  
CITY           SKY/WX    TMP DP  RH WIND       PRES   REMARKS
WORCESTER      CLOUDY    36  27  69 NW15G28   29.77S WCI  27          
6HR MIN TEMP:  31; 6HR MAX TEMP:  37; 6HR PCP: TRACE;                

FITCHBURG      CLOUDY    41  28  60 W16       29.78F                  
ORANGE         PTSUNNY   39  28  64 NW15G22   29.80F WCI  31          
SPRINGFIELD    CLOUDY    40  26  58 NW13      29.82F                  
WESTFIELD      CLOUDY    40  26  57 NW13G28   29.84F                  
NORTH ADAMS    CLOUDY    34  27  75 W14G22    29.85F WCI  25          
PITTSFIELD     CLOUDY    31  26  82 W21G37    29.81F WCI  18          
$$
 
RIZALL-181900-
RHODE ISLAND
  
CITY           SKY/WX    TMP DP  RH WIND       PRES   REMARKS
PROVIDENCE     PTSUNNY   42  27  55 NW17      29.81F                  
6HR MIN TEMP:  36; 6HR MAX TEMP:  43; 6HR PCP: TRACE;                

NEWPORT        MOSUNNY   41  28  60 NW15      29.80F                  
BLOCK ISLAND   CLOUDY    41  27  56 NW12G28   29.83F                  
SMITHFIELD     PTSUNNY   41  25  52 W14G21    29.78F                  
WESTERLY       CLOUDY    41  27  57 W8G22     29.84F                  
$$
 
CTZALL-181900-
CONNECTICUT
  
CITY           SKY/WX    TMP DP  RH WIND       PRES   REMARKS
BRADLEY INTL   CLOUDY    41  26  55 NW16      29.85F                  
6HR MIN TEMP:  37; 6HR MAX TEMP:  41;                                

HARTFORD       CLOUDY    40  26  57 W10G20    29.87F                  
BRIDGEPORT     FAIR      45  25  45 W13       29.90F                  
DANBURY        CLOUDY    40  23  50 W8        29.90F                  
GROTON         CLOUDY    40  27  59 NW14G24   29.84F                  
NEW HAVEN      PTSUNNY   45  26  47 NW9       29.89F                  
CHESTER        PTSUNNY   39  28  65 NW9G18    29.86S                  
MERIDEN        CLOUDY    40  26  57 NW8G21    29.88F                  
WILLIMANTIC    CLOUDY    40  27  59 NW16G29   29.84F WCI  31          
OXFORD         PTSUNNY   37  23  56 NW6       29.87F                  
$$

MEZ002-015-021-024-NHZ003-005-008-011-012-014-VTZ005-008-181900-
NORTHERN NEW ENGLAND
  
CITY           SKY/WX    TMP DP  RH WIND       PRES   REMARKS
PORTLAND ME    PTSUNNY   44  31  60 NW15      29.68S                  
6HR MIN TEMP:  38; 6HR MAX TEMP:  45; 6HR PCP:  0.01;                

BANGOR ME      LGT SNOW  32  30  92 NW9       29.61S VSB 1   WCI  24  
CONCORD NH     CLOUDY    38  29  70 NW14G24   29.74F WCI  30          
MANCHESTER NH  CLOUDY    40  28  62 W15G23    29.74F WCI  32          
NASHUA NH      PTSUNNY   42  28  58 NW16G25   29.76F                  
PORTSMOUTH NH  PTSUNNY   42  31  63 W17G24    29.71S                  
JAFFREY NH     MOSUNNY   37  27  67 W13G22    29.75F WCI  29          
KEENE NH       CLOUDY    37  27  65 NW13      29.79F WCI  29          
BURLINGTON VT  CLOUDY    35  25  66 NW14      29.84S WCI  26          
MT. WASHINGTON NOT AVBL                                               
$$

NYZ052-076-181900-
EASTERN NEW YORK
  
CITY           SKY/WX    TMP DP  RH WIND       PRES   REMARKS
ALBANY         CLOUDY    36  26  67 W13G20    29.91F WCI  27          
6HR MIN TEMP:  35; 6HR MAX TEMP:  36; 6HR PCP: TRACE;                

NEW YORK CITY  PTSUNNY   41  25  53 NW17G26   29.95F                  
6HR MIN TEMP:  38; 6HR MAX TEMP:  42;                                

$$
 
ANZALL-181900-
MARINE OBSERVATIONS
  
STATION/POSITION TIME  TEMP    WIND        PRES    VSBY  WAVE
                       AIR SEA DIR/SP/G                  HT/PER
                 (UTC) (F)     (DEG/KT/KT) (MB)    (MI)  (FT/S)
BOSTON BUOY      1750   42 44  300/ 21/ 25 1007.0R         4/ 4
BUZZARDS BAY     1700          290/ 24/ 28 1009.5F
NANTUCKET SOUND  1750   42 44  280/ 21/ 25 1007.2F         3/ 5
MASS BAY-STELLWA 1704   42 45  300/ 21/ 25   N/A    1 7/8  3/ 3
ISLE OF SHOALS   1700   41     300/ 27/ 30 1004.7F
S OF BLOCK IS    1708      52                N/A           7/ 6
$$

......................KEY.........................
  SKY/WX - SKY CONDITION/PRESENT WEATHER
  TMP    - TEMPERATURE IN FAHRENHEIT
  DWPT   - DEWPOINT IN FAHRENHEIT
  RH     - RELATIVE HUMIDITY IN PERCENT
  WIND   - DIRECTION AND SPEED IN MPH
  PRES   - MEAN SEA LEVEL PRESSURE IN INCHES OF HG
  WCI    - WIND CHILL INDEX
  VSB    - VISIBILITY IN MILES
  HX     - HEAT INDEX
  TC     - TEMPERATURE IN CELSIUS
  VRB    - VARIABLE WIND DIRECTION
  N/A    - NOT AVAILABLE

Return to Home page


Western Regional Climate Center, wrcc@dri.edu